Terug naar catalogus

DELTA 1 DEB

ActiefPO
NORAD 42655·DEBRIS·🇺🇸 United States

Gelanceerd Jun 12, 1975 vanaf Vandenberg Space Force Base

Loading…

Volgende Passages (komende 24 uur)

TLE

VerouderendSource: Space-Track

Epoch: Sep 4, 2026, 17:10 UTC

1 42655U 75052MQ  26247.71596662 -.00000544  00000-0 -80275-3 0  9994
2 42655  99.6059 217.1386 0568087 286.3280  67.6102 12.98686166606033

Volg DELTA 1 DEB in realtime met AllMySat

Download on the App Store